timestamp,surface_pressure_avg,surface_temp_avg,battery_voltage,lat,long
2020-04-07 00:09:01+00:00,347.593,1.3,12.89,47.84626,-54.09684
2020-04-07 00:19:01+00:00,343.8213,1.3,12.65,47.84626,-54.09684
2020-04-07 00:29:01+00:00,335.8779,1.3,12.65,47.84626,-54.09684
2020-04-07 00:39:01+00:00,328.7496,1.29,12.65,47.84626,-54.09684
2020-04-07 00:49:01+00:00,322.4047,1.29,12.65,47.84626,-54.09684
2020-04-07 00:59:01+00:00,314.2463,1.28,12.65,47.84626,-54.09684
2020-04-07 01:09:01+00:00,301.243,1.28,12.65,47.84626,-54.09684
2020-04-07 01:19:01+00:00,290.5314,1.28,12.65,47.84626,-54.09684
2020-04-07 01:29:01+00:00,283.0847,1.28,12.65,47.84626,-54.09684
2020-04-07 01:39:01+00:00,274.7397,1.27,12.65,47.84626,-54.09684
2020-04-07 01:49:01+00:00,263.9414,1.26,12.65,47.84626,-54.09684
2020-04-07 01:59:01+00:00,254.8897,1.25,12.65,47.84626,-54.09684
2020-04-07 02:09:01+00:00,245.7997,1.23,12.65,47.84626,-54.09684
2020-04-07 02:19:01+00:00,235.2614,1.23,12.65,47.84626,-54.09684
2020-04-07 02:29:01+00:00,225.0764,1.21,12.65,47.84626,-54.09684
2020-04-07 02:39:01+00:00,219.1048,1.21,12.65,47.84626,-54.09684
2020-04-07 02:49:01+00:00,211.9481,1.2,12.65,47.84626,-54.09684
2020-04-07 02:59:01+00:00,202.9364,1.2,12.65,47.84626,-54.09684
2020-04-07 03:09:01+00:00,196.3265,1.2,12.65,47.84626,-54.09684
2020-04-07 03:19:01+00:00,191.9848,1.2,12.65,47.84626,-54.09684
2020-04-07 03:29:01+00:00,186.5298,1.2,12.65,47.84626,-54.09684
2020-04-07 03:39:01+00:00,180.7365,1.2,12.65,47.84626,-54.09684
2020-04-07 03:49:01+00:00,179.3431,1.2,12.65,47.84626,-54.09684
2020-04-07 03:59:01+00:00,177.8915,1.2,12.65,47.84626,-54.09684
2020-04-07 04:09:01+00:00,172.9915,1.2,12.65,47.84626,-54.09684
2020-04-07 04:19:01+00:00,169.8315,1.2,12.57,47.84626,-54.09684
2020-04-07 04:29:01+00:00,169.0414,1.2,12.57,47.84626,-54.09684
2020-04-07 04:39:01+00:00,168.0615,1.2,12.57,47.84626,-54.09684
2020-04-07 04:49:01+00:00,166.9415,1.19,12.57,47.84626,-54.09684
2020-04-07 04:59:01+00:00,167.3014,1.19,12.57,47.84626,-54.09684
2020-04-07 05:09:01+00:00,169.8882,1.19,12.57,47.84626,-54.09684
2020-04-07 05:19:01+00:00,170.7982,1.18,12.57,47.84626,-54.09684
2020-04-07 05:29:01+00:00,170.5182,1.1,12.57,47.84626,-54.09684
2020-04-07 05:39:01+00:00,173.1398,1.1,12.57,47.84626,-54.09684
2020-04-07 05:49:01+00:00,180.2831,1.1,12.57,47.84626,-54.09684
2020-04-07 05:59:01+00:00,185.4181,1.1,12.57,47.84626,-54.09684
2020-04-07 06:09:01+00:00,186.4214,1.15,12.57,47.84626,-54.09684
2020-04-07 06:19:01+00:00,190.3431,1.2,12.57,47.84626,-54.09684
2020-04-07 06:29:01+00:00,197.8065,1.2,12.57,47.84626,-54.09684
2020-04-07 06:39:01+00:00,201.9915,1.19,12.57,47.84626,-54.09684
2020-04-07 06:49:01+00:00,203.8881,1.17,12.57,47.84626,-54.09684
2020-04-07 06:59:01+00:00,211.6598,1.16,12.57,47.84626,-54.09684
2020-04-07 07:09:01+00:00,221.7315,1.19,12.57,47.84626,-54.09684
2020-04-07 07:19:01+00:00,226.7864,1.19,12.49,47.84626,-54.09684
2020-04-07 07:29:01+00:00,232.6331,1.2,12.49,47.84626,-54.09684
2020-04-07 07:39:01+00:00,245.2564,1.2,12.49,47.84626,-54.09684
2020-04-07 07:49:01+00:00,256.7897,1.19,12.49,47.84626,-54.09684
2020-04-07 07:59:01+00:00,264.7047,1.2,12.49,47.84626,-54.09684
2020-04-07 08:09:01+00:00,272.2047,1.2,12.49,47.84626,-54.09684
2020-04-07 08:19:01+00:00,284.0731,1.2,12.49,47.84626,-54.09684
2020-04-07 08:29:01+00:00,292.9197,1.2,12.49,47.84626,-54.09684
2020-04-07 08:39:01+00:00,300.3846,1.2,12.49,47.84626,-54.09684
2020-04-07 08:49:01+00:00,308.6447,1.2,12.49,47.84626,-54.09684
2020-04-07 08:59:01+00:00,321.0497,1.2,12.49,47.84626,-54.09684
2020-04-07 09:09:01+00:00,329.2163,1.2,12.49,47.84626,-54.09684
2020-04-07 09:19:01+00:00,333.7563,1.2,12.49,47.84626,-54.09684
2020-04-07 09:29:01+00:00,339.4247,1.2,12.49,47.84626,-54.09684
2020-04-07 09:39:01+00:00,347.9396,1.2,12.49,47.84626,-54.09684
2020-04-07 09:49:01+00:00,353.9614,1.2,12.49,47.84626,-54.09684
2020-04-07 09:59:01+00:00,357.773,1.2,12.49,47.84626,-54.09684
2020-04-07 10:09:01+00:00,362.6312,1.2,12.49,47.84626,-54.09684
2020-04-07 10:19:01+00:00,369.4214,1.2,12.49,47.84626,-54.09684
2020-04-07 10:29:01+00:00,369.3329,1.2,12.49,47.84626,-54.09684
2020-04-07 10:39:01+00:00,371.0929,1.2,12.49,47.84626,-54.09684
2020-04-07 10:49:01+00:00,376.9597,1.2,12.49,47.84626,-54.09684
2020-04-07 10:59:01+00:00,380.5862,1.2,12.49,47.84626,-54.09684
2020-04-07 11:09:01+00:00,380.2812,1.2,12.49,47.84626,-54.09684
2020-04-07 11:19:01+00:00,381.0662,1.2,12.97,47.84626,-54.09684
2020-04-07 11:29:01+00:00,382.1746,1.2,12.97,47.84626,-54.09684
2020-04-07 11:39:01+00:00,379.9179,1.2,12.97,47.84626,-54.09684
2020-04-07 11:49:01+00:00,376.6896,1.2,12.97,47.84626,-54.09684
2020-04-07 11:59:01+00:00,377.3646,1.2,12.97,47.84626,-54.09684
2020-04-07 12:09:01+00:00,375.7846,1.2,12.97,47.84626,-54.09684
2020-04-07 12:19:01+00:00,371.5813,1.2,13.92,47.84626,-54.09684
2020-04-07 12:29:01+00:00,366.8862,1.2,13.92,47.84626,-54.09684
2020-04-07 12:39:01+00:00,363.098,1.2,13.92,47.84626,-54.09684
2020-04-07 12:49:01+00:00,359.5996,1.2,13.92,47.84626,-54.09684
2020-04-07 12:59:01+00:00,351.6214,1.2,13.92,47.84626,-54.09684
2020-04-07 13:09:01+00:00,343.3246,1.2,13.92,47.84626,-54.09684
2020-04-07 13:19:01+00:00,335.4297,1.2,14.24,47.84626,-54.09684
2020-04-07 13:29:01+00:00,324.6597,1.2,14.24,47.84626,-54.09684
2020-04-07 13:39:01+00:00,312.283,1.2,14.24,47.84626,-54.09684
2020-04-07 13:49:01+00:00,303.0814,1.2,14.24,47.84626,-54.09684
2020-04-07 13:59:01+00:00,295.4963,1.2,14.24,47.84626,-54.09684
2020-04-07 14:09:01+00:00,284.5347,1.2,14.24,47.84626,-54.09684
2020-04-07 14:19:01+00:00,272.4564,1.26,14.56,47.84626,-54.09684
2020-04-07 14:29:01+00:00,262.2814,1.3,14.56,47.84626,-54.09684
2020-04-07 14:39:01+00:00,252.84799999999998,1.31,14.56,47.84626,-54.09684
2020-04-07 14:49:01+00:00,242.7381,1.37,14.56,47.84626,-54.09684
2020-04-07 14:59:01+00:00,234.5681,1.37,14.56,47.84626,-54.09684
2020-04-07 15:09:01+00:00,227.4948,1.36,14.56,47.84626,-54.09684
2020-04-07 15:19:01+00:00,222.2731,1.4,14.32,47.84626,-54.09684
2020-04-07 15:29:01+00:00,215.3398,1.4,14.32,47.84626,-54.09684
2020-04-07 15:39:01+00:00,207.1681,1.44,14.32,47.84626,-54.09684
2020-04-07 15:49:01+00:00,201.5665,1.5,14.32,47.84626,-54.09684
2020-04-07 15:59:01+00:00,197.0597,1.59,14.32,47.84626,-54.09684
2020-04-07 16:09:01+00:00,189.8531,1.6,14.32,47.84626,-54.09684
2020-04-07 16:19:01+00:00,185.5581,1.6,14.56,47.84626,-54.09684
2020-04-07 16:29:01+00:00,185.1064,1.6,14.56,47.84626,-54.09684
2020-04-07 16:39:01+00:00,181.6231,1.6,14.56,47.84626,-54.09684
2020-04-07 16:49:01+00:00,175.4015,1.6,14.56,47.84626,-54.09684
2020-04-07 16:59:01+00:00,174.1982,1.6,14.56,47.84626,-54.09684
2020-04-07 17:09:01+00:00,176.1248,1.59,14.56,47.84626,-54.09684
2020-04-07 17:19:01+00:00,175.3598,1.5,14.56,47.84626,-54.09684
2020-04-07 17:29:01+00:00,174.4298,1.46,14.56,47.84626,-54.09684
2020-04-07 17:39:01+00:00,173.4748,1.49,14.56,47.84626,-54.09684
2020-04-07 17:49:01+00:00,175.1031,1.5,14.56,47.84626,-54.09684
2020-04-07 17:59:01+00:00,180.3681,1.51,14.56,47.84626,-54.09684
2020-04-07 18:09:01+00:00,184.3831,1.57,14.56,47.84626,-54.09684
2020-04-07 18:19:01+00:00,187.8398,1.6,14.32,47.84626,-54.09684
2020-04-07 18:29:01+00:00,193.2898,1.6,14.32,47.84626,-54.09684
2020-04-07 18:39:01+00:00,198.4998,1.6,14.32,47.84626,-54.09684
2020-04-07 18:49:01+00:00,203.8798,1.63,14.32,47.84626,-54.09684
2020-04-07 18:59:01+00:00,209.6914,1.68,14.32,47.84626,-54.09684
2020-04-07 19:09:01+00:00,217.1381,1.7,14.32,47.84626,-54.09684
2020-04-07 19:19:01+00:00,222.0881,1.69,14.24,47.84626,-54.09684
2020-04-07 19:29:01+00:00,225.7881,1.7,14.24,47.84626,-54.09684
2020-04-07 19:39:01+00:00,232.2581,1.7,14.24,47.84626,-54.09684
2020-04-07 19:49:01+00:00,240.7548,1.6,14.24,47.84626,-54.09684
2020-04-07 19:59:01+00:00,247.763,1.6,14.24,47.84626,-54.09684
2020-04-07 20:09:01+00:00,255.5214,1.6,14.24,47.84626,-54.09684
2020-04-07 20:19:01+00:00,264.9164,1.6,14.08,47.84626,-54.09684
2020-04-07 20:29:01+00:00,274.4581,1.6,14.08,47.84626,-54.09684
2020-04-07 20:39:01+00:00,283.123,1.64,14.08,47.84626,-54.09684
2020-04-07 20:49:01+00:00,291.8614,1.69,14.08,47.84626,-54.09684
2020-04-07 20:59:01+00:00,300.2147,1.66,14.08,47.84626,-54.09684
2020-04-07 21:09:01+00:00,309.903,1.67,14.08,47.84626,-54.09684
2020-04-07 21:19:01+00:00,318.933,1.68,13.92,47.84626,-54.09684
2020-04-07 21:29:01+00:00,328.8296,1.68,13.92,47.84626,-54.09684
2020-04-07 21:39:01+00:00,338.7063,1.68,13.92,47.84626,-54.09684
2020-04-07 21:49:01+00:00,344.2247,1.7,13.92,47.84626,-54.09684
2020-04-07 21:59:01+00:00,352.8729,1.7,13.92,47.84626,-54.09684
2020-04-07 22:09:01+00:00,362.9647,1.69,13.92,47.84626,-54.09684
2020-04-07 22:19:01+00:00,369.8963,1.68,13.53,47.84626,-54.09684
2020-04-07 22:29:01+00:00,374.0346,1.68,13.53,47.84626,-54.09684
2020-04-07 22:39:01+00:00,380.8362,1.68,13.53,47.84626,-54.09684
2020-04-07 22:49:01+00:00,387.4796,1.69,13.53,47.84626,-54.09684
2020-04-07 22:59:01+00:00,389.7645,1.7,13.53,47.84626,-54.09684
2020-04-07 23:09:01+00:00,392.0529,1.7,13.53,47.84626,-54.09684
2020-04-07 23:19:01+00:00,395.8279,1.7,13.13,47.84626,-54.09684
2020-04-07 23:29:01+00:00,398.6829,1.7,13.13,47.84626,-54.09684
2020-04-07 23:39:01+00:00,399.3229,1.69,13.13,47.84626,-54.09684
2020-04-07 23:49:01+00:00,398.6846,1.69,13.13,47.84626,-54.09684
2020-04-07 23:59:01+00:00,397.1146,1.69,13.13,47.84626,-54.09684
